Meridianville, AL

4:41 AM CST on February 25, 2017 (GMT -0600)
Huntsville Madison

Weather History for KMDQ - October, 2012

Change the Weather History Date:

Friday, October 19, 2012

  Actual Average (KHSV) Record (KHSV)
Temperature  
Mean Temperature 58 °F -  
Max Temperature 68 °F 69 °F 90 °F (1926)
Min Temperature 48 °F 46 °F 25 °F (1948)
Degree Days  
Heating Degree Days 7    
Growing Degree Days 8 (Base 50)    
Moisture  
Dew Point 40 °F    
Average Humidity 55    
Maximum Humidity 76    
Minimum Humidity 30    
Precipitation  
Precipitation 0.00 in - - ()
Sea Level Pressure  
Sea Level Pressure 29.79 in    
Wind  
Wind Speed 8 mph (SW)    
Max Wind Speed 18 mph    
Max Gust Speed 26 mph    
Visibility 9 miles    
Events      
Averages and records for this station are not official NWS values.
T = Trace of Precipitation, MM = Missing Value Source: NWS Daily Summary

Daily Weather History Graph

Daily Weather History Graph

Search for Another Location

Airport or City:

Trip Planner

Search our weather history database for the weather conditions in past years. The results will help you decide how hot, cold, wet, or windy it might be!

Date:

Astronomy

Oct. 19, 2012 Rise Set
Actual Time 6:55 AM CDT 6:05 PM CDT
Civil Twilight 6:30 AM CDT 6:31 PM CDT
Nautical Twilight 6:00 AM CDT 7:00 PM CDT
Astronomical Twilight 5:31 AM CDT 7:30 PM CDT
Moon 11:30 AM CDT (10/19) 9:51 PM CDT (10/19)
Length of Visible Light 12h 01m
Length of Day
11h 09m
Waxing Crescent, 24% of the Moon is Illuminated
Oct 19
Waxing Crescent
Oct 21
First Quarter
Oct 29
Full
Nov 6
Last Quarter
Nov 13
New

Hourly Weather History & Observations

Time (CDT) Temp. Dew Point Humidity Pressure Visibility Wind Dir Wind Speed Gust Speed Precip Events Conditions
1:35 AM 51.8 °F 42.8 °F 71% 29.81 in 10.0 mi South 5.8 mph - N/A   Clear
1:55 AM 51.8 °F 42.8 °F 71% 29.81 in 10.0 mi South 6.9 mph - N/A   Clear
2:15 AM 51.8 °F 42.8 °F 71% 29.80 in 10.0 mi South 5.8 mph - N/A   Clear
2:35 AM 50.0 °F 42.8 °F 76% 29.80 in 10.0 mi South 5.8 mph - N/A   Clear
2:55 AM 50.0 °F 42.8 °F 76% 29.80 in 10.0 mi South 5.8 mph - N/A   Clear
3:15 AM 50.0 °F 42.8 °F 76% 29.79 in 10.0 mi South 8.1 mph - N/A   Clear
3:35 AM 50.0 °F 42.8 °F 76% 29.79 in 10.0 mi South 6.9 mph - N/A   Clear
3:55 AM 50.0 °F 42.8 °F 76% 29.79 in 10.0 mi South 6.9 mph - N/A   Clear
4:15 AM 50.0 °F 42.8 °F 76% 29.79 in 10.0 mi South 8.1 mph - N/A   Clear
4:35 AM 50.0 °F 42.8 °F 76% 29.79 in 10.0 mi SSW 6.9 mph - N/A   Clear
4:55 AM 48.2 °F 41.0 °F 76% 29.79 in 10.0 mi SSW 6.9 mph - N/A   Clear
5:15 AM 48.2 °F 41.0 °F 76% 29.79 in 10.0 mi SSW 6.9 mph - N/A   Clear
5:35 AM 50.0 °F 41.0 °F 71% 29.79 in 10.0 mi SSW 6.9 mph - N/A   Clear
5:55 AM 50.0 °F 41.0 °F 71% 29.79 in 10.0 mi SSW 8.1 mph - N/A   Clear
6:15 AM 50.0 °F 41.0 °F 71% 29.79 in 10.0 mi SSW 8.1 mph - N/A   Clear
6:35 AM 50.0 °F 41.0 °F 71% 29.79 in 10.0 mi SSW 5.8 mph - N/A   Clear
6:55 AM 50.0 °F 41.0 °F 71% 29.79 in 10.0 mi SSW 6.9 mph - N/A   Clear
7:15 AM 50.0 °F 41.0 °F 71% 29.79 in 10.0 mi South 5.8 mph - N/A   Clear
7:35 AM 50.0 °F 41.0 °F 71% 29.78 in 10.0 mi SSW 5.8 mph - N/A   Clear
7:55 AM 51.8 °F 41.0 °F 67% 29.79 in 10.0 mi South 4.6 mph - N/A   Clear
8:15 AM 51.8 °F 41.0 °F 67% 29.79 in 10.0 mi SSW 8.1 mph - N/A   Clear
8:35 AM 53.6 °F 41.0 °F 62% 29.79 in 10.0 mi SSW 9.2 mph - N/A   Clear
8:55 AM 53.6 °F 41.0 °F 62% 29.79 in 10.0 mi SSW 10.4 mph - N/A   Clear
9:15 AM 53.6 °F 41.0 °F 62% 29.79 in 10.0 mi SSW 9.2 mph - N/A   Clear
9:35 AM 55.4 °F 41.0 °F 58% 29.79 in 10.0 mi SSW 9.2 mph - N/A   Clear
9:55 AM 57.2 °F 41.0 °F 55% 29.79 in 10.0 mi SW 9.2 mph - N/A   Clear
10:15 AM 59.0 °F 41.0 °F 51% 29.79 in 10.0 mi SSW 8.1 mph - N/A   Clear
10:35 AM 59.0 °F 41.0 °F 51% 29.79 in 10.0 mi SW 9.2 mph - N/A   Clear
10:55 AM 60.8 °F 41.0 °F 48% 29.79 in 7.0 mi SSW 10.4 mph - N/A   Clear
11:15 AM 62.6 °F 37.4 °F 39% 29.79 in 7.0 mi WSW 11.5 mph 19.6 mph N/A   Clear
11:35 AM 62.6 °F 37.4 °F 39% 29.79 in 5.0 mi WSW 11.5 mph 19.6 mph N/A   Haze
11:55 AM 62.6 °F 37.4 °F 39% 29.78 in 5.0 mi SW 10.4 mph - N/A   Haze
12:15 PM 64.4 °F 35.6 °F 34% 29.77 in 5.0 mi WSW 11.5 mph - N/A   Haze
12:35 PM 64.4 °F 35.6 °F 34% 29.77 in 5.0 mi SW 16.1 mph 20.7 mph N/A   Haze
12:55 PM 64.4 °F 35.6 °F 34% 29.76 in 7.0 mi WSW 16.1 mph 24.2 mph N/A   Clear
1:15 PM 66.2 °F 35.6 °F 32% 29.76 in 7.0 mi SW 17.3 mph 26.5 mph N/A   Clear
1:35 PM 66.2 °F 35.6 °F 32% 29.75 in 7.0 mi SW 15.0 mph 21.9 mph N/A   Clear
1:55 PM 66.2 °F 35.6 °F 32% 29.74 in 7.0 mi WSW 16.1 mph 23.0 mph N/A   Clear
2:15 PM 68.0 °F 35.6 °F 30% 29.74 in 7.0 mi SW 16.1 mph 26.5 mph N/A   Clear
2:35 PM 66.2 °F 35.6 °F 32% 29.74 in 7.0 mi WSW 11.5 mph 23.0 mph N/A   Clear
2:55 PM 66.2 °F 35.6 °F 32% 29.74 in 10.0 mi West 12.7 mph 17.3 mph N/A   Clear
3:15 PM 68.0 °F 37.4 °F 33% 29.74 in 10.0 mi West 15.0 mph 23.0 mph N/A   Clear
3:35 PM 68.0 °F 37.4 °F 33% 29.74 in 10.0 mi WSW 13.8 mph 19.6 mph N/A   Clear
3:55 PM 66.2 °F 37.4 °F 35% 29.75 in 10.0 mi WSW 18.4 mph 24.2 mph N/A   Clear
4:15 PM 66.2 °F 37.4 °F 35% 29.75 in 10.0 mi SW 15.0 mph 23.0 mph N/A   Scattered Clouds
4:35 PM 64.4 °F 37.4 °F 37% 29.75 in 10.0 mi SW 12.7 mph - N/A   Scattered Clouds
4:55 PM 64.4 °F 37.4 °F 37% 29.76 in 10.0 mi WSW 11.5 mph 18.4 mph N/A   Scattered Clouds
5:15 PM 64.4 °F 37.4 °F 37% 29.76 in 10.0 mi WSW 8.1 mph 11.5 mph N/A   Mostly Cloudy
5:35 PM 62.6 °F 37.4 °F 39% 29.78 in 10.0 mi West 6.9 mph 13.8 mph N/A   Overcast
5:55 PM 62.6 °F 37.4 °F 39% 29.78 in 10.0 mi WSW 10.4 mph - N/A   Overcast
6:15 PM 62.6 °F 39.2 °F 42% 29.79 in 10.0 mi West 5.8 mph - N/A   Overcast
6:35 PM 62.6 °F 41.0 °F 45% 29.79 in 10.0 mi West 4.6 mph - N/A   Overcast
6:55 PM 60.8 °F 41.0 °F 48% 29.80 in 10.0 mi West 3.5 mph - N/A   Overcast
7:15 PM 60.8 °F 41.0 °F 48% 29.81 in 10.0 mi West 4.6 mph - N/A   Overcast
7:35 PM 60.8 °F 41.0 °F 48% 29.81 in 10.0 mi West 5.8 mph - N/A   Overcast
7:55 PM 60.8 °F 41.0 °F 48% 29.82 in 10.0 mi WNW 8.1 mph - N/A   Overcast
8:15 PM 59.0 °F 41.0 °F 51% 29.83 in 10.0 mi NW 9.2 mph - N/A   Overcast
8:35 PM 59.0 °F 41.0 °F 51% 29.84 in 10.0 mi NW 6.9 mph - N/A   Overcast
8:55 PM 59.0 °F 41.0 °F 51% 29.84 in 10.0 mi NW 4.6 mph - N/A   Overcast
9:15 PM 57.2 °F 41.0 °F 55% 29.84 in 10.0 mi NW 5.8 mph - N/A   Overcast
9:35 PM 57.2 °F 41.0 °F 55% 29.85 in 10.0 mi NW 4.6 mph - N/A   Overcast
9:55 PM 55.4 °F 42.8 °F 63% 29.85 in 10.0 mi Calm Calm - N/A   Overcast
10:15 PM 55.4 °F 42.8 °F 63% 29.85 in 10.0 mi Calm Calm - N/A   Overcast
10:35 PM 55.4 °F 42.8 °F 63% 29.86 in 10.0 mi Calm Calm - N/A   Overcast
10:55 PM 55.4 °F 42.8 °F 63% 29.86 in 10.0 mi West 3.5 mph - N/A   Overcast
11:15 PM 53.6 °F 42.8 °F 67% 29.86 in 10.0 mi WNW 3.5 mph - N/A   Overcast
11:35 PM 53.6 °F 42.8 °F 67% 29.86 in 10.0 mi Calm Calm - N/A   Overcast
11:55 PM 53.6 °F 44.6 °F 72% 29.86 in 10.0 mi Calm Calm - N/A   Overcast